User: anonymous   Login
Location: Unspecified
(0.0000°N, 0.0000°E)
Time: 16:39:01
(UTC+00:00)
Language:

Injun/Solrad 3 - Orbit

View from above orbital plane
View from above orbital plane
View from above satellite
View from above satellite

Ground track
Ground track

The orbit data is extracted from the following two-line orbital elements,

1 00117U 61015B   18170.07049916 -.00000048  00000-0  22344-4 0  9997
2 00117  66.8131 281.1535 0078244 184.8533 175.1796 13.89826423888677
Epoch (UTC): 19 June 2018 01:41:31
Eccentricity: 0.0078244
inclination: 66.8131°
perigee height: 872 km
apogee height: 986 km
right ascension of ascending node: 281.1535°
argument of perigee: 184.8533°
revolutions per day: 13.89826423
mean anomaly at epoch: 175.1796°
orbit number at epoch: 88867

The dashed part of the orbit path shows where the satellite is in the earth's shadow,  

DLR